Needles, CA

10:55 AM PDT on June 23, 2017 (GMT -0700)
Needles

Weather History for KEED - August, 2013

Change the Weather History Date:

Sunday, August 18, 2013

  Actual Average Record
Temperature  
Mean Temperature 96 °F 95 °F  
Max Temperature 113 °F 107 °F 115 °F (1992)
Min Temperature 82 °F 83 °F 60 °F (1918)
Degree Days  
Heating Degree Days 0    
Cooling Degree Days 32    
Growing Degree Days 46 (Base 50)    
Moisture  
Dew Point 56 °F    
Average Humidity 27    
Maximum Humidity 62    
Minimum Humidity 13    
Precipitation  
Precipitation 0.05 in 0.01 in 0.88 in (1983)
Month to date precipitation 0.22  
Year to date precipitation 2.76  
Sea Level Pressure  
Sea Level Pressure 29.74 in    
Wind  
Wind Speed 10 mph (North)    
Max Wind Speed 26 mph    
Max Gust Speed 37 mph    
Visibility 10 miles    
Events Rain , Thunderstorm    
T = Trace of Precipitation, MM = Missing Value Source: NWS Daily Summary

Daily Weather History Graph

Daily Weather History Graph

Search for Another Location

Airport or City:

Trip Planner

Search our weather history database for the weather conditions in past years. The results will help you decide how hot, cold, wet, or windy it might be!

Date:

Astronomy

Aug. 18, 2013 Rise Set
Actual Time 6:01 AM PDT 7:22 PM PDT
Civil Twilight 5:34 AM PDT 7:48 PM PDT
Nautical Twilight 5:03 AM PDT 8:20 PM PDT
Astronomical Twilight 4:30 AM PDT 8:53 PM PDT
Moon 5:29 PM PDT (8/18) 3:18 AM PDT (8/18)
Length of Visible Light 14h 14m
Length of Day
13h 21m
Waxing Gibbous, 93% of the Moon is Illuminated
Aug 18
Waxing Gibbous
Aug 20
Full
Aug 28
Last Quarter
Sep 5
New
Sep 12
First Quarter

Hourly Weather History & Observations

Time (PDT) Temp. Heat Index Dew Point Humidity Pressure Visibility Wind Dir Wind Speed Gust Speed Precip Events Conditions
12:56 AM 98.1 °F 95.7 °F 53.1 °F 22% 29.69 in 10.0 mi SSW 9.2 mph - N/A   Clear
1:56 AM 96.1 °F 94.1 °F 55.0 °F 25% 29.70 in 10.0 mi SW 6.9 mph - N/A   Clear
2:56 AM 96.1 °F 93.8 °F 54.0 °F 24% 29.70 in 10.0 mi South 11.5 mph - N/A   Clear
3:56 AM 93.9 °F 91.7 °F 54.0 °F 26% 29.71 in 10.0 mi WSW 5.8 mph - N/A   Clear
4:56 AM 91.9 °F 90.0 °F 55.0 °F 29% 29.72 in 10.0 mi West 6.9 mph - N/A   Clear
5:56 AM 91.0 °F 88.9 °F 55.0 °F 29% 29.74 in 10.0 mi Variable 4.6 mph - N/A   Clear
6:56 AM 91.9 °F 90.0 °F 55.0 °F 29% 29.75 in 10.0 mi NW 4.6 mph - N/A   Clear
7:56 AM 93.0 °F 91.7 °F 57.0 °F 30% 29.77 in 10.0 mi East 4.6 mph - N/A   Clear
8:56 AM 98.1 °F 96.4 °F 55.0 °F 24% 29.76 in 10.0 mi North 4.6 mph - N/A   Clear
9:56 AM 100.0 °F 97.9 °F 54.0 °F 21% 29.77 in 10.0 mi Variable 4.6 mph - N/A   Clear
10:56 AM 104.0 °F 101.8 °F 53.1 °F 18% 29.76 in 10.0 mi Calm Calm - N/A   Clear
11:56 AM 106.0 °F 103.9 °F 53.1 °F 17% 29.74 in 10.0 mi East 5.8 mph - N/A   Clear
12:56 PM 107.1 °F 105.4 °F 54.0 °F 17% 29.71 in 10.0 mi NE 5.8 mph - N/A   Clear
1:56 PM 109.9 °F - 52.0 °F 15% 29.67 in 10.0 mi Variable 5.8 mph - N/A   Clear
2:56 PM 111.9 °F - 51.1 °F 13% 29.63 in 10.0 mi SE 11.5 mph 18.4 mph N/A   Clear
3:56 PM 111.9 °F - 52.0 °F 14% 29.61 in 10.0 mi SW 13.8 mph 21.9 mph N/A   Clear
4:56 PM 111.9 °F - 51.1 °F 13% 29.61 in 10.0 mi South 13.8 mph 17.3 mph N/A   Partly Cloudy
5:56 PM 109.9 °F - 52.0 °F 15% 29.60 in 10.0 mi South 6.9 mph - N/A   Clear
6:56 PM 108.0 °F 106.6 °F 54.0 °F 17% 29.62 in 10.0 mi SW 11.5 mph - N/A   Clear
7:34 PM 102.2 °F 101.4 °F 57.2 °F 22% 29.77 in 10.0 mi NNW 15.0 mph - N/A   Clear
7:56 PM 100.0 °F 99.7 °F 57.9 °F 25% 29.67 in 10.0 mi NW 13.8 mph - N/A   Clear
8:24 PM 98.6 °F 97.6 °F 57.2 °F 25% 29.80 in 10.0 mi NNE 19.6 mph 36.8 mph N/A   Clear
8:56 PM 97.0 °F 96.5 °F 59.0 °F 28% 29.72 in 10.0 mi North 26.5 mph 32.2 mph N/A   Clear
9:19 PM 95.0 °F 94.4 °F 59.0 °F 30% 29.86 in 10.0 mi NNE 24.2 mph 33.4 mph N/A Thunderstorm Clear
9:34 PM 93.2 °F 92.6 °F 59.0 °F 32% 29.88 in 10.0 mi NNE 21.9 mph - N/A   Scattered Clouds
9:42 PM 93.2 °F 93.3 °F 60.8 °F 34% 29.88 in 10.0 mi NNE 24.2 mph 29.9 mph N/A Thunderstorm Mostly Cloudy
9:56 PM 91.9 °F 91.8 °F 61.0 °F 35% 29.77 in 10.0 mi NNE 24.2 mph 32.2 mph 0.00 in Rain , Thunderstorm Light Rain
10:56 PM 84.0 °F 87.0 °F 68.0 °F 58% 29.81 in 10.0 mi NNE 12.7 mph 23.0 mph 0.05 in Rain , Thunderstorm Light Thunderstorms and Rain
11:28 PM 82.4 °F 85.4 °F 68.0 °F 62% 29.91 in 10.0 mi North 18.4 mph 23.0 mph 0.00 in   Overcast
11:56 PM 82.0 °F 84.9 °F 68.0 °F 62% 29.81 in 10.0 mi North 17.3 mph - 0.00 in   Scattered Clouds